Wetbulb
49.29 44.73 41.58 43.81 45.02 45.59 42.97 41.00 40.24 43.41 47.15 45.69 45.22 45.89 48.23 50.36 50.50 50.34 50.85 51.48 52.66 54.11 55.82 55.42 58.93 62.45 63.94 64.54 64.23 63.29 59.78 58.96 57.32 54.83 53.05 51.30 50.04 49.14 48.90 49.21 49.77 50.24 50.32 50.32
45.38 42.32 46.53 47.14 46.02 44.23 43.24 41.54 41.33 44.68 47.26 45.87 45.24 44.67 47.87 49.23 49.76 50.73 50.69 51.41 52.53 53.84 55.14 55.83 55.36 59.42 62.47 63.52 63.97 63.00 60.90 58.66 57.20 56.24 55.58 54.32 51.42 49.16 48.40 47.99 47.78 48.55 48.78 49.68
42.52 43.53 47.62 46.17 44.89 43.11 43.39 41.80 41.75 41.69 45.30 46.99 44.99 42.33 44.79 47.08 49.01 50.04 51.39 52.33 53.19 53.99 54.54 55.79 54.26 56.65 61.19 62.14 63.65 63.40 61.30 58.93 58.15 56.88 54.78 52.76 50.17 47.44 45.88 46.17 46.00 46.89 47.50 48.59
43.06 46.32 44.22 43.24 41.98 43.82 38.39 45.49 44.56 43.34 41.78 36.21 44.26 33.13 41.73 45.51 46.77 48.63 49.65 51.10 50.98 52.24 53.79 53.93 53.49 55.72 59.61 61.00 63.49 64.25 61.18 58.48 56.87 55.66 53.39 49.05 48.48 46.12 48.70 47.10 47.16 45.75 46.54 46.71
36.63 42.15 43.22 41.84 42.55 44.63 41.24 45.06 43.35 42.73 40.69 39.68 39.33 35.87 40.30 45.06 43.52 45.87 47.96 50.13 49.79 50.40 50.75 50.95 51.93 53.56 57.30 60.31 61.51 63.19 62.45 58.36 55.52 53.95 53.55 49.39 50.62 50.75 50.10 48.14 45.81 45.11 45.26 45.56
39.33 43.51 41.56 42.20 44.52 45.70 44.43 41.39 39.89 40.31 38.64 30.87 36.60 36.14 36.80 40.65 43.39 45.68 48.50 47.27 47.94 48.75 49.80 51.41 52.40 52.49 54.24 58.65 60.30 61.43 61.46 58.41 54.69 53.78 52.93 50.08 50.74 48.46 44.90 44.89 44.54 44.74 43.09 43.57
38.09 38.97 41.48 42.94 39.23 41.27 40.09 35.95 29.48 28.40 29.51 28.75 38.05 35.29 37.81 43.39 45.95 42.38 41.56 43.45 45.75 48.12 48.55 50.20 51.09 50.64 51.48 54.24 58.73 59.75 59.69 57.42 54.50 52.82 52.15 50.38 50.77 47.76 45.13 45.20 44.72 44.59 41.30 41.17
31.99 30.52 39.05 41.69 39.64 37.41 37.84 36.88 30.64 22.57 24.87 29.23 36.75 30.78 36.78 43.63 42.75 42.80 43.07 43.75 45.07 46.58 47.94 48.98 50.41 50.01 50.51 51.47 54.42 58.72 58.94 57.70 54.70 52.65 51.84 50.07 50.70 46.88 46.72 45.76 44.22 45.18 41.74 42.14
31.45 32.14 39.95 38.88 39.64 41.09 36.88 33.91 37.30 32.14 33.80 29.50 32.96 37.53 42.36 40.28 39.32 40.08 40.21 42.22 44.04 45.02 47.08 47.84 50.29 49.69 49.44 50.77 54.06 58.03 59.26 57.63 54.69 52.72 50.84 49.45 49.01 46.45 45.81 44.63 43.83 42.85 41.41 39.85
33.98 28.07 36.24 36.57 40.70 38.50 36.42 37.89 30.82 32.76 25.12 23.93 29.18 29.24 32.27 35.04 36.20 38.42 38.45 40.72 42.63 44.29 45.97 48.12 49.08 49.11 48.41 50.37 56.08 57.79 58.45 56.70 53.86 49.87 48.87 49.20 47.25 47.00 43.89 42.34 41.60 40.46 39.85 39.54
35.76 31.40 30.44 34.48 33.15 31.33 32.21 31.72 31.76 30.14 28.87 22.67 20.52 25.48 37.03 35.47 38.32 37.48 38.58 40.35 42.02 43.85 44.20 44.74 48.54 49.71 48.45 49.31 52.07 53.33 53.55 52.43 47.98 47.79 48.20 46.21 45.31 43.92 42.64 40.86 40.74 40.98 39.49 39.15
34.85 31.44 25.79 28.22 34.70 37.60 36.28 32.11 30.30 24.40 21.30 23.23 23.08 25.10 39.87 39.23 40.01 40.08 39.80 40.65 42.75 43.70 44.77 45.85 47.27 47.10 47.03 47.73 48.49 48.41 47.64 47.45 47.11 46.84 45.72 44.30 42.04 41.12 40.38 39.77 40.22 39.93 39.41 39.30
34.17 28.84 22.69 25.47 31.20 34.23 31.57 32.73 32.08 30.17 28.69 22.44 19.96 23.66 38.61 39.13 38.35 39.52 39.64 41.21 42.31 43.23 44.23 45.35 45.81 48.53 47.50 45.69 45.49 46.14 46.47 45.95 45.51 44.62 42.90 41.19 40.45 39.75 38.74 39.13 39.29 39.23 38.03 38.00
36.95 29.74 25.87 21.50 25.57 28.72 26.01 28.43 30.30 28.30 22.71 22.72 24.36 26.67 32.44 35.08 35.57 37.87 39.28 41.94 41.99 42.83 43.27 43.93 45.07 48.06 48.11 45.68 43.76 38.63 44.77 43.73 44.44 44.08 41.94 40.05 39.95 40.26 41.91 38.97 38.26 37.56 36.89 35.93
34.40 26.00 28.57 28.97 29.91 29.91 28.31 28.14 28.34 25.04 26.55 21.82 24.89 26.04 31.44 34.58 35.95 37.65 41.28 41.70 41.48 42.41 43.82 44.47 45.53 46.36 47.33 45.47 44.14 41.83 41.36 41.48 40.34 40.87 40.34 39.67 41.03 40.03 38.41 37.55 37.41 37.75 36.44 36.43
34.82 26.66 26.61 20.73 27.95 26.68 23.77 26.27 26.66 26.49 26.39 26.31 27.69 27.80 36.00 37.34 39.46 38.54 38.51 39.30 40.40 42.26 42.88 43.67 45.17 44.93 44.72 45.25 43.38 42.59 41.46 39.85 39.85 37.73 35.01 38.01 37.27 36.26 36.29 35.85 35.78 35.74 35.06 35.29
29.70 26.49 22.16 19.62 24.21 22.92 18.05 23.99 25.95 27.05 28.93 28.47 24.10 30.62 35.25 34.28 34.68 36.13 37.22 37.94 39.64 41.90 42.46 43.25 44.13 43.98 44.45 44.93 43.34 42.38 41.99 39.98 39.11 36.27 35.19 35.01 35.19 35.37 35.11 35.37 35.06 34.06 33.63 34.47
27.32 26.04 24.21 19.04 20.73 10.12 24.81 30.24 31.02 29.31 30.27 32.89 32.55 33.02 33.93 33.68 35.57 36.86 39.44 40.17 41.27 41.20 41.90 43.28 44.13 43.68 44.58 46.63 43.24 42.84 40.54 40.56 38.64 37.32 36.21 35.87 35.19 35.19 34.10 33.74 33.56 33.33 33.82 33.03
29.99 26.44 20.64 16.27 16.15 21.10 24.60 28.55 28.02 25.49 25.74 32.58 30.74 32.35 33.76 35.59 35.95 35.66 39.92 41.22 41.06 40.89 42.40 44.03 44.43 43.66 44.60 44.80 43.43 41.22 39.99 40.50 38.82 37.36 36.18 35.59 34.72 33.92 33.56 32.85 32.65 32.86 32.80 32.47
29.02 28.77 22.66 19.13 14.02 11.58 24.01 30.59 33.29 32.18 22.13 33.08 32.23 31.69 32.02 34.10 28.92 31.41 38.09 38.71 39.34 41.76 42.65 43.37 43.73 42.97 43.04 41.60 41.25 40.19 38.78 37.71 38.67 37.94 37.03 36.48 35.59 34.28 33.48 33.16 32.38 32.58 33.54 32.29
21.33 22.07 19.07 18.52 16.88 20.64 29.01 31.64 32.96 19.73 23.48 33.57 33.48 33.24 32.99 32.26 34.34 35.10 37.90 37.00 40.20 41.68 40.32 43.25 41.92 40.06 39.46 40.58 39.23 38.42 34.99 36.24 37.21 37.99 38.01 37.41 35.89 34.06 33.79 33.02 32.39 32.06 32.46 32.29
20.80 18.00 17.91 18.75 15.36 12.84 31.89 31.16 25.41 30.82 34.10 34.24 34.45 34.78 34.33 36.41 34.79 35.48 37.08 37.05 40.93 40.91 42.59 37.54 36.64 34.46 36.09 38.80 37.75 35.01 34.28 33.56 34.28 34.82 34.63 35.12 35.33 34.24 33.44 32.36 31.68 31.61 31.26 31.09
20.46 25.36 22.39 22.30 22.04 31.12 33.78 33.23 35.33 35.72 34.03 34.53 34.80 35.97 35.96 34.61 33.72 37.44 37.63 39.90 39.12 39.45 40.36 40.53 35.73 34.10 33.74 35.73 34.28 33.37 32.83 33.37 33.56 33.56 33.37 33.56 33.92 33.90 33.49 32.08 31.24 31.00 30.29 30.29
27.04 29.66 25.61 25.09 29.62 30.48 32.15 33.90 35.12 35.63 34.73 35.48 35.93 36.21 35.61 34.23 35.54 37.90 38.41 39.45 38.43 38.00 37.58 38.76 37.48 35.12 33.37 33.56 33.86 33.74 33.01 33.74 33.74 33.19 33.01 33.01 32.83 32.45 32.54 32.40 31.84 30.69 29.68 29.80
28.01 28.55 26.86 26.80 29.92 31.77 32.36 33.56 34.87 34.94 35.49 35.05 36.13 35.86 35.13 35.01 37.47 38.43 38.82 38.88 37.11 36.39 36.78 37.20 36.90 35.71 34.39 33.82 32.59 33.07 33.33 34.06 34.16 33.71 32.83 32.65 32.85 32.44 31.61 31.63 31.60 31.38 31.47 32.06
29.47 27.09 25.14 24.20 31.20 31.16 31.65 34.85 35.46 33.64 34.06 35.01 34.51 34.47 35.43 35.44 38.07 39.59 38.46 37.58 36.26 35.08 34.95 35.19 34.95 35.55 33.88 32.53 31.58 32.02 33.56 34.12 33.27 32.48 32.49 32.08 31.93 31.82 31.51 30.75 30.63 31.88 32.08 31.97
MSLP
1012.74 1012.87 1012.54 1012.28 1012.08 1011.48 1011.70 1011.72 1011.66 1011.59 1010.99 1010.15 1008.60 1005.73 1004.11 1004.93 1004.55 1003.71 1003.43 1003.13 1002.80 1002.68 1002.59 1002.77 1002.85 1003.09 1003.61 1004.05 1004.46 1004.76 1005.53 1006.36 1007.57 1008.29 1009.01 1010.14 1010.73 1011.81 1012.92 1013.43 1014.20 1014.81 1015.39 1016.28
1012.56 1011.81 1011.77 1011.91 1012.20 1012.23 1012.04 1011.73 1011.60 1011.03 1010.69 1010.35 1008.77 1004.90 1002.86 1004.22 1003.17 1002.67 1002.35 1002.44 1002.18 1001.79 1001.71 1001.86 1001.91 1002.35 1002.54 1002.54 1003.29 1004.16 1004.66 1005.23 1006.17 1007.29 1007.78 1008.62 1009.89 1011.35 1012.25 1013.18 1013.99 1014.47 1015.00 1015.53
1011.19 1010.90 1011.20 1011.67 1011.95 1012.04 1011.81 1011.82 1011.52 1011.21 1010.87 1010.21 1008.93 1004.77 1002.32 1002.29 1001.83 1002.43 1002.47 1002.20 1002.07 1001.97 1001.30 1001.34 1001.82 1001.82 1001.89 1002.37 1002.36 1002.51 1003.33 1004.38 1005.26 1006.38 1007.55 1008.36 1009.88 1011.14 1012.05 1012.72 1013.41 1014.05 1014.73 1015.29
1011.21 1010.88 1010.82 1011.23 1011.32 1011.56 1010.98 1010.99 1010.87 1011.01 1011.11 1009.78 1009.55 1006.33 1001.64 1001.60 1000.01 1002.21 1002.00 1002.14 1002.32 1001.92 1001.61 1001.63 1001.91 1001.94 1001.74 1001.66 1001.57 1002.21 1002.80 1003.63 1004.46 1005.66 1006.63 1007.05 1007.55 1009.02 1009.95 1011.46 1012.65 1013.69 1014.36 1014.91
1010.68 1010.69 1010.72 1010.81 1010.58 1010.75 1010.70 1010.77 1010.78 1010.73 1010.87 1010.54 1006.59 1008.73 1003.47 1000.48 1000.45 1001.63 1002.67 1002.80 1003.21 1003.54 1003.11 1002.35 1002.28 1002.17 1001.53 1001.30 1001.54 1001.38 1002.72 1003.54 1004.25 1004.42 1005.50 1006.63 1007.14 1007.94 1009.10 1010.74 1012.00 1012.96 1013.84 1014.45
1011.01 1011.01 1010.94 1010.45 1010.38 1010.45 1010.93 1011.07 1011.02 1010.84 1010.93 1009.79 1006.59 1008.53 1005.57 1002.67 1002.46 1002.57 1003.72 1004.88 1005.01 1004.49 1004.09 1003.13 1002.47 1002.29 1002.00 1000.97 1001.04 1001.09 1001.27 1002.40 1003.42 1003.95 1004.32 1005.40 1006.17 1006.78 1008.14 1009.61 1010.96 1012.11 1013.16 1014.18
1011.41 1011.02 1010.72 1010.73 1010.76 1010.91 1011.25 1011.68 1011.17 1010.61 1010.31 1008.40 1007.26 1006.83 1004.86 1004.42 1004.71 1006.11 1005.95 1005.82 1005.65 1005.24 1004.39 1003.71 1002.68 1001.81 1001.93 1001.40 1000.66 1000.84 1000.42 1001.03 1002.37 1002.91 1003.70 1004.01 1005.19 1006.02 1006.68 1007.93 1009.47 1011.15 1012.31 1013.35
1012.04 1011.82 1011.42 1011.67 1011.56 1011.48 1011.64 1011.75 1012.04 1011.04 1009.72 1008.46 1008.29 1006.15 1004.83 1006.25 1006.72 1007.05 1007.25 1006.65 1005.89 1005.24 1004.71 1003.28 1002.80 1002.72 1001.96 1001.53 1000.34 999.83 999.91 1000.03 1001.08 1002.28 1002.84 1003.64 1004.47 1005.93 1006.69 1007.61 1008.64 1009.96 1011.74 1012.34
1013.41 1012.85 1012.51 1012.34 1012.04 1012.03 1012.33 1012.39 1013.11 1012.60 1011.28 1010.15 1008.14 1006.60 1006.27 1007.41 1007.86 1007.46 1006.90 1006.80 1006.01 1005.09 1004.24 1004.24 1002.75 1002.70 1001.89 1001.08 999.90 998.95 998.96 999.30 1000.30 1001.18 1002.74 1003.66 1004.25 1005.78 1006.59 1007.33 1008.80 1009.90 1011.35 1012.75
1014.60 1013.98 1013.54 1013.09 1012.44 1012.87 1012.68 1013.40 1013.55 1013.56 1012.39 1010.41 1009.15 1008.71 1008.12 1008.26 1008.38 1008.12 1007.72 1006.90 1006.33 1005.93 1004.99 1004.25 1003.59 1002.03 1002.05 1001.24 999.25 998.83 998.79 998.88 1000.11 1001.08 1002.38 1003.21 1003.90 1005.40 1007.04 1007.99 1008.82 1009.88 1010.86 1012.12
1014.63 1014.72 1013.93 1013.43 1013.12 1013.13 1013.55 1013.79 1014.73 1015.17 1014.89 1013.57 1011.93 1010.43 1009.27 1009.37 1009.22 1008.42 1007.95 1006.80 1006.11 1005.94 1005.04 1004.21 1003.72 1002.65 1002.30 1001.66 1000.04 999.72 999.22 999.19 1000.11 1001.20 1002.44 1003.28 1003.97 1005.01 1006.48 1007.99 1009.22 1010.18 1011.12 1012.36
1015.31 1015.45 1014.91 1014.08 1014.06 1013.74 1013.98 1014.87 1015.45 1015.79 1015.66 1015.39 1014.44 1011.86 1010.44 1009.45 1008.47 1008.17 1007.58 1006.46 1005.99 1005.74 1004.53 1003.74 1003.75 1003.05 1002.40 1001.80 1001.05 1000.73 1000.17 999.82 1000.19 1001.12 1002.15 1003.10 1004.04 1005.12 1006.34 1007.64 1008.89 1009.94 1011.86 1013.29
1015.47 1016.10 1015.78 1014.37 1014.79 1014.72 1014.79 1015.45 1015.59 1016.24 1016.35 1014.86 1013.90 1011.07 1009.73 1009.04 1008.20 1007.69 1007.32 1006.28 1005.57 1005.08 1004.36 1003.42 1003.16 1002.54 1001.77 1001.32 1001.15 1001.03 1001.09 1000.91 1001.30 1001.91 1002.49 1003.38 1004.27 1005.34 1006.36 1007.56 1008.59 1010.00 1011.47 1012.96
1015.52 1016.06 1016.22 1015.62 1014.50 1014.74 1014.89 1014.82 1015.22 1016.06 1015.78 1014.26 1012.51 1010.92 1009.83 1008.62 1008.12 1007.14 1006.77 1005.90 1005.63 1004.77 1003.61 1002.92 1002.26 1001.96 1001.27 1001.23 1001.23 1001.39 1001.56 1001.53 1001.84 1002.54 1003.11 1003.73 1004.53 1005.33 1006.16 1007.23 1008.27 1009.29 1010.44 1012.00
1015.96 1016.36 1016.40 1015.91 1015.30 1014.92 1015.05 1014.63 1014.24 1014.73 1014.34 1014.46 1011.96 1011.04 1009.57 1008.86 1008.14 1007.26 1006.87 1005.99 1005.40 1004.99 1003.76 1002.82 1002.07 1001.95 1001.26 1001.03 1001.11 1001.51 1001.37 1001.98 1002.34 1003.02 1003.52 1004.15 1004.82 1005.58 1006.43 1007.56 1008.61 1009.50 1010.34 1012.24
1016.27 1016.69 1016.77 1015.82 1015.81 1015.41 1015.07 1014.42 1013.54 1013.24 1013.05 1012.61 1011.78 1010.52 1009.75 1008.98 1008.51 1007.59 1007.04 1006.46 1005.39 1004.86 1004.48 1003.37 1002.13 1002.02 1001.55 1000.61 1001.04 1001.05 1001.61 1001.97 1002.56 1003.41 1004.01 1004.51 1005.17 1005.91 1006.85 1007.61 1008.72 1009.98 1010.87 1011.76
1016.52 1017.02 1017.34 1016.25 1015.94 1015.80 1014.82 1013.41 1012.84 1012.37 1012.19 1012.21 1011.27 1010.20 1010.32 1009.51 1008.79 1007.84 1007.06 1006.24 1005.65 1004.60 1003.97 1003.31 1002.77 1002.17 1001.07 1000.15 1000.25 1000.66 1001.43 1002.39 1002.30 1003.60 1003.96 1004.60 1005.63 1006.23 1007.01 1007.86 1008.53 1010.00 1011.22 1012.12
1016.74 1016.69 1017.64 1016.86 1016.52 1015.40 1013.09 1013.09 1013.10 1012.65 1011.91 1011.58 1011.54 1011.32 1010.78 1010.39 1009.17 1008.21 1007.23 1005.86 1005.51 1004.93 1004.00 1003.78 1003.15 1001.98 1000.85 999.93 999.86 1000.52 1001.04 1002.14 1002.71 1003.46 1004.38 1004.48 1005.13 1006.39 1007.33 1007.89 1009.02 1010.12 1011.22 1012.45
1016.38 1016.89 1017.39 1017.42 1016.22 1014.45 1012.86 1012.70 1012.60 1012.48 1010.92 1011.47 1011.61 1011.24 1010.67 1010.06 1008.67 1007.64 1006.99 1006.52 1005.92 1005.10 1003.85 1003.33 1002.93 1001.88 1001.26 1000.37 1000.44 1000.90 1001.40 1001.53 1002.72 1003.28 1004.14 1004.66 1005.72 1006.19 1007.14 1007.99 1009.09 1010.10 1011.29 1012.42
1016.60 1016.91 1016.72 1017.17 1016.44 1013.93 1011.90 1012.10 1012.31 1012.21 1010.57 1010.32 1010.30 1009.81 1009.86 1009.44 1008.10 1006.75 1006.32 1006.28 1005.34 1004.39 1003.52 1003.19 1003.06 1002.57 1001.96 1001.00 1001.06 1001.44 1001.75 1001.57 1002.73 1003.35 1003.94 1004.65 1005.37 1006.45 1007.27 1008.12 1008.93 1009.99 1011.12 1012.22
1016.61 1016.74 1016.30 1016.38 1015.70 1013.50 1011.91 1011.40 1011.73 1011.39 1010.16 1009.59 1009.55 1009.27 1009.02 1009.08 1008.75 1007.58 1006.75 1006.18 1004.88 1004.01 1003.27 1002.67 1002.87 1002.73 1002.01 1001.21 1001.27 1001.72 1001.74 1001.35 1002.36 1003.63 1004.15 1004.94 1005.61 1006.38 1007.31 1008.51 1009.52 1010.17 1011.33 1012.60
1014.76 1015.64 1015.75 1015.99 1015.35 1013.43 1010.99 1011.15 1010.85 1009.67 1009.28 1009.33 1009.06 1008.91 1008.65 1008.46 1007.76 1007.21 1006.71 1005.76 1004.35 1003.16 1002.58 1002.66 1002.61 1002.57 1002.21 1001.60 1001.75 1002.14 1002.11 1002.18 1003.10 1003.42 1004.06 1005.33 1005.96 1006.35 1007.36 1008.56 1009.75 1010.86 1011.64 1012.85
1014.02 1013.50 1013.79 1013.91 1012.22 1010.89 1010.35 1009.42 1009.13 1009.29 1009.24 1008.90 1008.69 1008.45 1008.45 1007.98 1007.14 1006.52 1006.12 1004.91 1004.18 1003.44 1002.74 1002.66 1002.55 1002.59 1002.40 1002.00 1001.75 1002.16 1002.36 1002.35 1003.34 1003.95 1004.42 1005.37 1006.21 1007.02 1007.78 1008.51 1009.74 1010.78 1011.72 1012.62
1012.93 1012.63 1012.57 1012.86 1010.04 1009.72 1009.68 1009.24 1008.81 1008.75 1008.59 1008.38 1008.38 1008.17 1008.15 1007.43 1006.65 1006.05 1005.67 1004.82 1004.40 1004.06 1003.50 1003.14 1003.01 1002.42 1002.40 1002.39 1001.65 1002.23 1002.80 1003.09 1003.92 1004.55 1005.05 1005.70 1006.47 1007.31 1008.25 1009.05 1009.77 1010.31 1011.62 1012.73
1011.85 1011.90 1011.43 1010.74 1009.05 1008.87 1008.68 1008.26 1008.19 1008.05 1008.04 1007.97 1007.88 1007.86 1007.64 1007.03 1006.23 1006.07 1005.42 1004.98 1004.63 1004.29 1004.03 1003.69 1003.29 1002.74 1002.26 1002.04 1002.20 1002.76 1003.31 1003.25 1004.36 1005.01 1005.39 1005.92 1006.78 1007.40 1008.54 1009.43 1009.65 1010.16 1011.01 1011.35
1010.67 1009.89 1010.36 1008.63 1007.91 1008.22 1007.25 1007.54 1007.64 1007.75 1007.30 1007.42 1007.37 1006.97 1006.76 1006.57 1005.94 1005.71 1005.34 1005.05 1004.84 1004.54 1004.24 1003.77 1003.31 1002.71 1003.03 1003.23 1002.97 1003.38 1003.78 1003.94 1004.66 1005.19 1005.69 1006.08 1006.69 1007.80 1008.66 1009.42 1010.33 1010.55 1010.99 1012.07
Wind_Speed
5 5 9 16 18 12 9 9 12 8 12 20 19 29 26 23 23 22 21 21 21 21 20 16 16 17 18 18 20 21 21 20 15 13 13 11 13 10 9 8 12 13 13 14
3 9 11 12 13 13 13 15 15 14 11 6 17 38 31 23 24 22 19 17 19 21 19 16 15 15 19 21 21 20 22 22 19 14 12 9 12 8 9 8 10 11 13 15
15 6 6 9 7 9 12 12 14 17 16 15 18 29 23 11 21 14 12 13 13 18 21 17 13 15 17 19 21 24 23 20 19 16 11 7 9 7 7 10 9 10 12 12
10 7 16 18 13 10 16 12 15 15 8 9 2 16 33 22 29 11 15 8 12 17 17 16 14 13 15 19 19 20 17 19 18 19 16 20 16 14 10 11 9 10 12 13
7 2 3 7 10 10 7 1 6 9 10 12 23 9 19 31 28 17 8 17 21 19 19 17 16 15 15 16 17 18 18 16 18 20 19 15 16 12 11 11 15 13 11 11
5 2 3 6 4 5 2 1 4 7 7 11 24 13 20 24 20 27 22 19 20 20 19 19 14 14 15 13 15 17 19 18 19 20 22 22 21 18 15 15 13 12 10 9
3 6 2 2 4 2 4 3 4 3 5 10 10 10 17 20 19 18 22 24 24 20 19 19 19 17 15 14 16 17 20 20 21 22 22 23 22 21 22 21 16 17 12 10
1 5 3 3 3 2 3 4 4 8 14 18 19 13 13 13 18 16 16 21 22 21 20 18 20 18 16 18 18 20 22 21 22 21 22 19 19 12 13 16 15 13 11 12
1 3 2 8 2 2 3 2 7 8 18 15 15 20 19 16 14 23 25 25 25 25 23 23 19 18 18 19 19 20 22 20 20 20 16 16 14 14 12 15 14 11 13 11
3 4 1 1 2 7 5 1 2 3 6 6 4 5 7 15 14 17 19 17 23 22 24 23 21 18 15 17 16 13 16 16 14 15 13 14 15 13 11 12 15 15 16 15
4 2 4 4 2 2 4 3 3 2 4 4 4 5 5 8 13 17 20 17 19 22 19 20 20 19 15 16 12 6 7 10 12 14 14 13 14 15 16 14 14 15 16 17
1 2 5 4 4 4 6 3 3 1 2 4 7 7 3 13 16 16 21 18 19 24 21 20 17 13 11 11 10 6 3 9 12 15 14 14 14 16 16 16 17 16 13 13
8 3 3 7 6 1 3 6 4 3 2 11 7 7 14 16 17 17 19 18 17 21 23 20 18 16 9 6 6 5 1 4 8 11 12 14 15 16 17 17 17 17 17 12
8 5 6 9 9 1 7 10 7 5 7 8 13 21 22 26 21 23 22 20 18 19 20 18 15 14 13 6 5 3 2 6 9 10 12 14 15 16 15 16 18 19 19 18
7 7 9 13 11 13 14 18 19 17 19 12 23 23 27 23 24 22 19 20 20 19 17 14 12 13 17 8 7 4 4 4 7 9 11 12 11 11 14 15 15 16 16 16
4 4 4 5 9 8 16 18 20 22 20 19 22 25 23 19 17 19 19 22 20 19 17 18 17 17 18 13 10 8 8 8 7 7 7 10 12 13 14 16 16 14 15 15
6 6 2 6 1 7 11 18 16 14 18 17 18 20 14 19 20 20 22 21 20 15 19 20 17 17 18 15 10 12 11 8 10 8 10 11 11 13 15 15 16 17 16 15
5 6 3 4 3 6 4 4 6 7 13 8 10 12 14 16 23 24 20 19 15 20 20 20 18 17 18 12 10 9 12 11 11 12 10 13 14 13 11 14 14 14 13 14
7 5 3 3 6 11 14 4 2 3 17 5 8 15 16 18 24 14 14 18 22 24 18 17 16 17 17 6 9 11 11 13 11 13 12 13 12 14 15 14 15 13 14 12
9 10 7 4 5 7 2 6 7 7 16 7 8 12 18 18 16 17 22 25 28 23 16 17 15 11 9 4 5 10 12 12 13 13 14 12 13 13 13 13 15 12 12 13
5 5 13 11 9 8 11 9 3 5 10 7 14 17 16 14 12 22 21 26 25 21 19 18 11 7 6 3 4 7 4 8 7 8 12 14 13 14 13 13 11 13 13 13
10 9 6 5 6 12 13 4 7 7 9 15 18 17 18 15 18 17 21 22 21 23 18 6 7 3 5 3 4 4 6 7 8 10 10 10 11 11 12 15 13 13 14 13
6 8 6 10 10 6 6 5 7 8 14 17 17 16 15 16 19 16 21 19 17 19 13 7 6 5 3 1 3 1 1 8 9 9 10 10 10 10 12 15 14 12 12 11
6 5 6 5 16 18 14 16 14 13 16 17 16 15 12 17 18 19 18 18 14 10 10 9 6 4 1 1 5 2 5 8 9 10 10 10 10 11 10 9 10 11 11 11
6 6 8 16 24 17 17 17 17 17 13 14 13 14 15 15 15 17 15 16 12 11 9 8 7 3 6 5 5 6 6 9 9 9 10 10 8 10 9 7 8 9 9 12
9 17 11 13 16 13 18 15 14 13 14 14 16 17 14 14 14 13 12 10 10 11 11 9 8 8 5 3 5 5 4 7 8 8 7 8 8 8 8 8 7 7 9 11
Wind_Direction
190 178 203 204 211 244 285 281 283 269 278 290 285 281 288 291 282 278 275 278 281 280 279 256 248 234 228 219 208 201 190 188 181 179 174 174 181 172 175 172 172 170 172 175
178 245 239 217 221 239 260 278 286 283 273 265 299 290 290 287 275 276 274 281 283 283 278 265 246 232 216 213 208 204 202 188 187 191 189 179 170 179 167 166 172 173 172 172
231 194 93 186 209 227 239 249 267 271 293 284 281 283 297 306 288 279 294 286 289 289 287 285 260 233 219 219 211 208 202 193 190 189 176 154 147 134 156 181 173 173 170 173
263 243 246 247 249 246 268 222 244 263 286 294 340 293 301 305 292 341 304 310 329 313 315 316 301 272 227 225 223 219 198 194 189 180 183 175 174 173 188 176 165 164 169 169
205 180 157 213 229 208 249 227 257 270 267 296 269 244 287 295 299 343 46 325 348 340 335 324 318 305 274 243 226 216 209 197 189 184 189 182 184 182 163 163 162 165 166 167
234 123 248 209 178 177 91 235 297 259 237 244 270 233 266 280 308 311 328 353 345 341 334 331 336 324 311 265 231 215 206 198 191 192 189 187 187 171 162 164 167 170 162 157
190 223 111 54 232 301 265 300 313 263 192 255 300 262 244 288 300 14 350 341 337 331 332 329 335 337 325 306 245 223 204 202 196 192 195 188 188 177 170 167 171 168 166 163
162 168 61 359 85 280 306 176 224 268 277 283 287 262 265 47 5 357 354 339 329 329 332 334 339 329 325 307 282 228 214 208 194 196 195 187 184 178 176 177 170 171 167 155
59 208 73 53 33 299 39 191 344 283 259 266 258 269 269 10 4 357 345 337 331 330 329 324 334 332 329 316 296 238 219 207 198 190 188 186 169 172 172 168 161 156 140 133
139 286 134 307 135 68 98 7 351 278 282 272 300 315 299 331 335 328 326 324 317 314 317 319 320 332 325 316 315 257 225 207 188 175 172 177 162 160 150 148 150 148 136 130
150 172 192 296 186 293 310 196 172 210 237 287 311 307 237 236 279 312 305 300 307 309 308 311 315 316 320 314 321 264 207 175 158 164 168 158 155 148 146 143 142 138 127 134
133 148 285 292 342 279 226 139 119 191 298 293 254 249 283 242 271 276 293 296 293 293 302 310 298 280 301 307 319 319 340 158 160 161 159 154 141 142 140 141 138 133 133 142
167 164 300 292 139 101 171 192 174 127 208 245 255 262 259 275 281 294 295 301 292 289 288 290 296 292 283 300 323 328 211 123 147 150 145 142 143 142 142 142 145 143 136 142
159 173 202 247 273 168 259 264 249 199 255 272 259 271 291 287 299 303 310 309 300 295 292 290 299 299 289 244 230 219 201 143 148 152 151 147 151 154 165 154 151 148 144 145
170 226 220 241 257 273 285 280 291 262 252 256 269 284 280 292 297 300 304 313 318 314 322 313 310 311 302 259 218 199 149 150 146 150 153 157 151 148 142 142 144 145 143 155
141 219 195 262 260 272 275 275 266 275 277 264 266 269 279 302 309 305 311 312 315 315 316 321 316 311 312 279 219 185 170 155 142 137 127 134 133 134 138 135 137 142 143 144
172 162 169 266 44 323 276 251 263 277 284 281 280 295 323 316 314 307 307 299 296 311 321 321 315 306 307 297 198 192 175 155 140 146 141 133 138 141 148 146 143 149 149 150
184 158 160 260 315 248 264 322 285 284 291 295 298 304 308 308 299 303 293 293 306 320 321 312 310 310 309 298 198 180 163 170 157 152 156 146 148 146 144 143 147 145 145 149
207 173 184 245 217 284 283 236 201 308 293 302 318 311 305 307 305 312 336 327 312 310 305 305 311 315 310 280 186 178 180 164 172 164 164 155 154 148 151 151 150 144 141 139
204 218 202 181 236 245 258 180 217 215 283 198 280 301 302 315 312 317 321 321 307 301 301 304 307 305 306 331 200 186 181 163 187 177 167 158 153 155 154 150 147 143 138 135
155 197 217 222 244 273 255 227 200 256 298 310 307 304 310 299 296 303 312 303 289 289 296 297 293 287 288 206 200 217 193 169 142 160 160 162 156 151 143 139 141 137 131 130
185 174 200 189 221 256 233 172 204 265 300 294 297 296 300 294 302 304 309 296 304 308 296 274 282 273 267 221 189 195 178 123 137 142 142 151 154 146 144 142 139 140 136 135
231 202 188 197 215 243 213 218 258 275 281 293 293 297 293 304 308 308 315 311 320 322 321 311 316 307 265 230 132 148 127 129 132 136 137 139 139 140 147 145 146 140 142 145
235 186 238 222 254 245 248 254 260 268 277 285 291 290 299 306 308 313 309 313 322 325 330 330 298 309 301 151 70 103 139 127 132 135 135 136 138 140 146 149 156 148 155 161
222 178 234 249 258 273 259 258 264 271 274 286 283 290 294 297 292 308 306 313 321 325 331 340 343 341 1 12 69 94 126 123 138 142 141 142 145 147 145 156 158 158 175 176
209 236 224 244 259 257 267 275 269 271 285 294 293 300 293 296 290 300 305 311 328 333 341 349 356 7 8 54 66 67 110 124 137 140 148 148 143 147 153 148 132 131 144 162